| time (UTC) | temp F | wind direction | speed knots | gust knots | rain 1hr in | rain 24hr in | rain mn in | humidity % | barometer mb |
| 20260509085336 | 97 | 0.0 | 0.0 | 0.00 | 0.00 | 0.00 | 35 | 989.2 | |
| 20260509083336 | 98 | 0.0 | 0.0 | 0.00 | 0.00 | 0.00 | 34 | 989.3 | |
| 20260509081336 | 98 | 0.0 | 0.0 | 0.00 | 0.00 | 0.00 | 34 | 989.4 | |
| 20260509075336 | 97 | 0.0 | 0.0 | 0.00 | 0.00 | 0.00 | 35 | 989.4 | |
| 20260509073335 | 96 | 0.0 | 0.0 | 0.00 | 0.00 | 0.00 | 36 | 989.5 | |
| 20260509071336 | 96 | 0.0 | 0.0 | 0.00 | 0.00 | 0.00 | 38 | 989.6 | |
| 20260509065336 | 96 | 0.0 | 0.0 | 0.00 | 0.00 | 0.00 | 38 | 989.5 | |
| 20260509063336 | 96 | 0.0 | 0.0 | 0.00 | 0.00 | 0.00 | 39 | 989.6 | |
| 20260509061336 | 96 | 0.0 | 0.0 | 0.00 | 0.00 | 0.00 | 38 | 989.7 | |
| 20260509055335 | 96 | 0.0 | 0.0 | 0.00 | 0.00 | 0.00 | 38 | 989.9 | |
| 20260509053336 | 96 | 0.0 | 0.0 | 0.00 | 0.00 | 0.00 | 38 | 990.0 | |
| 20260509051336 | 96 | 0.0 | 0.0 | 0.00 | 0.00 | 0.00 | 38 | 990.1 | |
| 20260509045336 | 96 | 0.0 | 0.0 | 0.00 | 0.00 | 0.00 | 38 | 990.1 | |
| 20260509043336 | 97 | 0.0 | 0.0 | 0.00 | 0.00 | 0.00 | 37 | 990.5 | |
| 20260509041335 | 97 | 0.0 | 0.0 | 0.00 | 0.00 | 0.00 | 37 | 990.6 | |
| 20260509035336 | 97 | 0.0 | 0.0 | 0.00 | 0.00 | 0.00 | 38 | 990.9 | |
| 20260509033336 | 95 | 0.0 | 0.0 | 0.00 | 0.00 | 0.00 | 39 | 991.1 | |
| 20260509031335 | 95 | 0.0 | 0.0 | 0.00 | 0.00 | 0.00 | 39 | 991.5 | |
| 20260509025336 | 95 | 0.0 | 0.0 | 0.00 | 0.00 | 0.00 | 39 | 991.7 | |
| 20260509023336 | 95 | 0.0 | 0.0 | 0.00 | 0.00 | 0.00 | 40 | 991.9 | |
| 20260509021336 | 92 | 0.0 | 0.0 | 0.00 | 0.00 | 0.00 | 42 | 991.8 | |
| 20260509015336 | 91 | 0.0 | 0.0 | 0.00 | 0.00 | 0.00 | 42 | 992.0 | |
| 20260509013336 | 93 | 0.0 | 0.0 | 0.00 | 0.00 | 0.00 | 39 | 992.1 | |
| 20260509011336 | 93 | 0.0 | 0.0 | 0.00 | 0.00 | 0.00 | 39 | 991.9 | |
| 20260509005337 | 93 | 0.0 | 0.0 | 0.00 | 0.00 | 0.00 | 39 | 992.0 | |
| 20260509003337 | 93 | 0.0 | 0.0 | 0.00 | 0.00 | 0.00 | 39 | 991.9 | |
| 20260509001336 | 93 | 0.0 | 0.0 | 0.00 | 0.00 | 0.00 | 40 | 991.8 | |
| 20260508235336 | 94 | 0.0 | 0.0 | 0.00 | 0.00 | 0.00 | 42 | 991.6 | |
| 20260508233336 | 94 | 0.0 | 0.0 | 0.00 | 0.00 | 0.00 | 42 | 991.4 | |
| 20260508231336 | 94 | 0.0 | 0.0 | 0.00 | 0.00 | 0.00 | 41 | 991.4 | |
| 20260508225336 | 93 | 0.0 | 0.0 | 0.00 | 0.00 | 0.00 | 41 | 991.2 | |
| 20260508223336 | 93 | 0.0 | 0.0 | 0.00 | 0.00 | 0.00 | 41 | 991.3 | |
| 20260508221337 | 93 | 0.0 | 0.0 | 0.00 | 0.00 | 0.00 | 41 | 991.2 | |
| 20260508215337 | 93 | 0.0 | 0.0 | 0.00 | 0.00 | 0.00 | 41 | 990.9 | |
| 20260508213336 | 93 | 0.0 | 0.0 | 0.00 | 0.00 | 0.00 | 41 | 990.8 | |
| 20260508211336 | 93 | 0.0 | 0.0 | 0.00 | 0.00 | 0.00 | 41 | 990.6 | |
| 20260508205336 | 93 | 0.0 | 0.0 | 0.00 | 0.00 | 0.00 | 40 | 990.5 | |
| 20260508203336 | 93 | 0.0 | 0.0 | 0.00 | 0.00 | 0.00 | 40 | 990.3 | |
| 20260508201336 | 93 | 0.0 | 0.0 | 0.00 | 0.00 | 0.00 | 40 | 990.3 | |
| 20260508195336 | 93 | 0.0 | 0.0 | 0.00 | 0.00 | 0.00 | 39 | 990.1 | |
| 20260508193336 | 93 | 0.0 | 0.0 | 0.00 | 0.00 | 0.00 | 39 | 989.9 | |
| 20260508191337 | 93 | 0.0 | 0.0 | 0.00 | 0.00 | 0.00 | 39 | 990.0 | |
| 20260508185337 | 93 | 0.0 | 0.0 | 0.00 | 0.00 | 0.00 | 39 | 990.0 | |
| 20260508183337 | 93 | 0.0 | 0.0 | 0.00 | 0.00 | 0.00 | 39 | 990.0 | |
| 20260508181336 | 93 | 0.0 | 0.0 | 0.00 | 0.00 | 0.00 | 39 | 990.1 | |
| 20260508175336 | 94 | 0.0 | 0.0 | 0.00 | 0.00 | 0.00 | 39 | 990.0 | |
| 20260508173336 | 94 | 0.0 | 0.0 | 0.00 | 0.00 | 0.00 | 39 | 990.2 | |
| 20260508171336 | 94 | 0.0 | 0.0 | 0.00 | 0.00 | 0.00 | 39 | 990.4 | |
| 20260508165336 | 94 | 0.0 | 0.0 | 0.00 | 0.00 | 0.00 | 39 | 990.5 | |
| 20260508163336 | 94 | 0.0 | 0.0 | 0.00 | 0.00 | 0.00 | 39 | 990.6 | |
| 20260508161336 | 94 | 0.0 | 0.0 | 0.00 | 0.00 | 0.00 | 39 | 990.7 | |
| 20260508155336 | 94 | 0.0 | 0.0 | 0.00 | 0.00 | 0.00 | 39 | 990.8 | |
| 20260508153336 | 94 | 0.0 | 0.0 | 0.00 | 0.00 | 0.00 | 40 | 990.9 | |
| 20260508151336 | 94 | 0.0 | 0.0 | 0.00 | 0.00 | 0.00 | 40 | 991.1 | |
| 20260508145336 | 94 | 0.0 | 0.0 | 0.00 | 0.00 | 0.00 | 39 | 991.2 | |
| 20260508143336 | 95 | 0.0 | 0.0 | 0.00 | 0.00 | 0.00 | 39 | 991.1 | |
| 20260508141337 | 95 | 0.0 | 0.0 | 0.00 | 0.00 | 0.00 | 40 | 990.8 | |
| 20260508135336 | 95 | 0.0 | 0.0 | 0.00 | 0.00 | 0.00 | 40 | 990.7 | |
| 20260508133337 | 95 | 0.0 | 0.0 | 0.00 | 0.00 | 0.00 | 40 | 990.5 | |
| 20260508131336 | 95 | 0.0 | 0.0 | 0.00 | 0.00 | 0.00 | 40 | 990.4 | |
| 20260508125336 | 95 | 0.0 | 0.0 | 0.00 | 0.00 | 0.00 | 40 | 990.2 | |
| 20260508123336 | 95 | 0.0 | 0.0 | 0.00 | 0.00 | 0.00 | 39 | 990.0 | |
| 20260508121336 | 95 | 0.0 | 0.0 | 0.00 | 0.00 | 0.00 | 39 | 989.9 | |
| 20260508115336 | 96 | 0.0 | 0.0 | 0.00 | 0.00 | 0.00 | 38 | 989.7 | |
| 20260508113336 | 96 | 0.0 | 0.0 | 0.00 | 0.00 | 0.00 | 38 | 989.4 | |
| 20260508111336 | 97 | 0.0 | 0.0 | 0.00 | 0.00 | 0.00 | 37 | 989.4 | |
| 20260508105336 | 97 | 0.0 | 0.0 | 0.00 | 0.00 | 0.00 | 38 | 989.1 | |
| 20260508103336 | 97 | 0.0 | 0.0 | 0.00 | 0.00 | 0.00 | 37 | 989.0 | |
| 20260508101336 | 98 | 0.0 | 0.0 | 0.00 | 0.00 | 0.00 | 36 | 988.9 | |
| 20260508095336 | 99 | 0.0 | 0.0 | 0.00 | 0.00 | 0.00 | 36 | 988.7 | |
| 20260508093336 | 99 | 0.0 | 0.0 | 0.00 | 0.00 | 0.00 | 35 | 988.4 | |
| 20260508091336 | 99 | 0.0 | 0.0 | 0.00 | 0.00 | 0.00 | 35 | 988.3 |